User: anonymous   Login
Location: Unspecified
(0.0000°N, 0.0000°E)
Time: 10:33:09
(UTC+00:00)
Language:

TET - Orbit

View from above orbital plane
View from above orbital plane
View from above satellite
View from above satellite

Ground track
Ground track

The orbit data is extracted from the following two-line orbital elements,

1 38710U 12039D   20051.87637787 +.00003887 +00000-0 +69572-4 0  9994
2 38710 097.6132 072.6139 0001811 224.2517 135.8589 15.50660108425665
Epoch (UTC): 20 February 2020 21:01:59
Eccentricity: 0.0001811
inclination: 97.6132°
perigee height: 413 km
apogee height: 416 km
right ascension of ascending node: 72.6139°
argument of perigee: 224.2517°
revolutions per day: 15.50660108
mean anomaly at epoch: 135.8589°
orbit number at epoch: 42566

The dashed part of the orbit path shows where the satellite is in the earth's shadow,  

DLR